Flag for U.S.A. Weather past 2 weeks in Spartanburg, South Carolina, U.S.A.

Now
66 °F

Clear.


Feels Like: 66 °F
Forecast: 69 / 85 °F
Wind: 3 mph from Southeast

Location: Spartanburg Memorial

Current Time: May 27, 2015 at 7:06:51 AM

Latest Report: May 27, 2015 at 6:35 AM


Visibility: 10 mi

Pressure: 30.24 "Hg

Humidity: 100%

Dew point: 66 °F

Location of SpartanburgLocation

Historic Weather in Spartanburg — Graph

°F

Spartanburg temperature yesterday

Maximum temperature yesterday: 88 °F (at 5:15 PM)
Minimum temperature yesterday: 68 °F (at 9:55 PM)
Average temperature yesterday: 77 °F

Past Weeks' High & Low Weather Summary

 TemperatureHumidityPressure
High90 °F (May 18, 2:15 PM)100% (May 12, 8:55 AM)30.44 "Hg (May 12, 8:55 AM)
Low54 °F (May 23, 3:35 AM)19% (May 21, 6:35 PM)29.81 "Hg (May 21, 5:15 PM)
Average74 °F61%30.19 "Hg
* Reported May 12 5:15 AM — May 27 5:55 AM, Spartanburg, Weather by CustomWeather, © 2015

Note: Actual official high and low records may vary slightly from our data, if they occured in-between our weather recording intervals... More about our weather records

Advertising

Spartanburg weather history for previous 24 hours

 ConditionsComfort  
Time TempWeatherWind HumidityBarometerVisibility
5:55 AM
Wed, May 27
N/AClear.3 mphN/A30.22 "Hg10 mi
5:35 AMN/APassing clouds.No windN/A30.21 "Hg10 mi
5:15 AMN/APassing clouds.No windN/A30.20 "Hg10 mi
4:55 AMN/APassing clouds.3 mphN/A30.20 "Hg10 mi
4:35 AMN/AClear.3 mphN/A30.20 "Hg10 mi
4:15 AM68 °FPassing clouds.3 mph100%30.19 "Hg10 mi
3:55 AM68 °FPassing clouds.5 mph100%30.20 "Hg10 mi
3:35 AM68 °FPassing clouds.8 mph100%30.20 "Hg10 mi
3:15 AMN/APassing clouds.6 mphN/A30.20 "Hg10 mi
2:55 AMN/APassing clouds.6 mphN/A30.20 "Hg10 mi
2:35 AMN/ALow clouds.6 mphN/A30.20 "Hg7 mi
2:15 AMN/APartly cloudy.No windN/A30.20 "Hg10 mi
1:55 AMN/APassing clouds.No windN/A30.20 "Hg10 mi
1:35 AMN/APassing clouds.No windN/A30.21 "Hg10 mi
1:15 AMN/APassing clouds.No windN/A30.22 "Hg10 mi
12:55 AMN/APassing clouds.No windN/A30.22 "Hg10 mi
12:35 AMN/APassing clouds.No windN/A30.23 "Hg10 mi
11:55 PM
Tue, May 26
N/APassing clouds.3 mphN/A30.25 "Hg10 mi
11:35 PMN/ALight rain.No windN/A30.26 "Hg10 mi
11:15 PMN/ALight rain.No windN/A30.27 "Hg10 mi
10:55 PMN/ARain.No windN/A30.26 "Hg7 mi
10:35 PMN/ALight rain.No windN/A30.25 "Hg10 mi
10:15 PM68 °FThundershowers. Mostly cloudy.6 mph100%30.24 "Hg10 mi
9:55 PM68 °FThundershowers. Overcast.7 mph100%30.24 "Hg7 mi
9:35 PM70 °FThundershowers. Passing clouds.7 mph100%30.24 "Hg10 mi
9:15 PM70 °FThundershowers. Scattered clouds.10 mph100%30.22 "Hg10 mi
8:55 PM70 °FThundershowers. Broken clouds.12 mph100%30.22 "Hg10 mi
8:35 PM73 °FRain. Scattered clouds.20 mph78%30.22 "Hg10 mi
8:15 PM79 °FThundershowers. Scattered clouds.3 mph79%30.19 "Hg10 mi
7:55 PM79 °FLight rain. Broken clouds.3 mph70%30.17 "Hg10 mi
7:35 PM82 °FSunny.No wind58%30.16 "Hg10 mi
7:15 PM82 °FSunny.No wind55%30.17 "Hg10 mi
6:55 PM84 °FSunny.5 mph51%30.17 "Hg10 mi
6:35 PM86 °FSunny.No wind49%30.17 "Hg10 mi
5:35 PM86 °FScattered clouds.3 mph49%30.19 "Hg10 mi
5:15 PM88 °FScattered clouds.5 mph49%30.20 "Hg10 mi
4:55 PM86 °FSunny.5 mph49%30.19 "Hg7 mi
4:35 PM86 °FScattered clouds.3 mph52%30.19 "Hg10 mi
4:15 PM84 °FScattered clouds.3 mph55%30.20 "Hg10 mi
3:55 PM84 °FScattered clouds.5 mph51%30.20 "Hg10 mi
3:35 PM86 °FSunny.5 mph52%30.20 "Hg10 mi
3:15 PM82 °FScattered clouds.5 mph55%30.21 "Hg7 mi
2:55 PM82 °FCloudy.3 mph58%30.22 "Hg7 mi
2:35 PM82 °FCloudy.5 mph55%30.23 "Hg7 mi
2:15 PM82 °FMostly cloudy.6 mph55%30.25 "Hg10 mi
1:55 PM82 °FPartly sunny.3 mph55%30.26 "Hg10 mi
1:35 PM81 °FMostly cloudy.3 mph58%30.26 "Hg10 mi
1:15 PM82 °FMore clouds than sun.6 mph55%30.27 "Hg7 mi
12:55 PM81 °FMore clouds than sun.5 mph58%30.27 "Hg7 mi
12:35 PM81 °FBroken clouds.5 mph54%30.27 "Hg7 mi
12:15 PM82 °FPartly sunny.6 mph55%30.27 "Hg7 mi
11:55 AM82 °FScattered clouds.5 mph55%30.28 "Hg10 mi
11:35 AM79 °FScattered clouds.5 mph61%30.28 "Hg10 mi
11:15 AM79 °FScattered clouds.3 mph61%30.28 "Hg10 mi
10:55 AM79 °FScattered clouds.3 mph61%30.29 "Hg10 mi
10:35 AM79 °FScattered clouds.5 mph65%30.29 "Hg10 mi
10:15 AM77 °FBroken clouds.6 mph69%30.29 "Hg10 mi
9:55 AM77 °FScattered clouds.3 mph79%30.29 "Hg10 mi
9:35 AM75 °FScattered clouds.5 mph83%30.29 "Hg10 mi
9:15 AM73 °FScattered clouds.6 mph94%30.30 "Hg10 mi
8:55 AM73 °FScattered clouds.No wind100%30.30 "Hg10 mi
8:35 AM73 °FScattered clouds.No wind100%30.30 "Hg10 mi
8:15 AM72 °FScattered clouds.No wind100%30.30 "Hg10 mi
7:55 AM72 °FSunny.No wind100%30.30 "Hg10 mi
7:35 AM72 °FSunny.No wind100%30.29 "Hg10 mi
7:15 AM72 °FClear.No wind100%30.29 "Hg10 mi
Weather by CustomWeather, © 2015

See weather overviewHow to use our weather pages